Home   Weather   Kowloon   Past weeks

Flag for Hong Kong Past Weather in Kowloon, Hong Kong — Yesterday and Last 2 Weeks

Now
70 °F

Passing clouds.


Feels Like: 70 °F
Forecast: 69 / 79 °F
Wind: 5 mph from Southeast

Location: National Airport

Current Time: Apr 29, 2017 at 12:12:31 am

Latest Report: Apr 28, 2017 at 11:30 pm


Visibility: N/A

Pressure: 29.95 "Hg

Humidity: 73%

Dew Point: 61 °F

Location of KowloonLocation

Past Weather in Kowloon — Graph

°F

Kowloon Temperature Yesterday

Maximum temperature yesterday: 77 °F (at 12:00 pm)
Minimum temperature yesterday: 68 °F (at 6:30 am)
Average temperature yesterday: 72 °F

High & Low Weather Summary for the Past Weeks

 TemperatureHumidityPressure
High88 °F (Apr 18, 2:30 pm)100% (Apr 27, 7:00 am)30.07 "Hg (Apr 27, 7:00 am)
Low64 °F (Apr 22, 11:30 am)54% (Apr 28, 11:00 am)29.68 "Hg (Apr 21, 2:00 pm)
Average76 °F77%29.88 "Hg
* Reported Apr 13 11:00 pm — Apr 28 11:00 pm, Kowloon, Weather by CustomWeather, © 2017

Note: Actual official high and low records may vary slightly from our data, if they occured in-between our weather recording intervals... More about our weather records

Advertising

Kowloon Weather History for the Previous 24 Hours

Scroll right to see more
 ConditionsComfort  
Time TempWeatherWind HumidityBarometerVisibility
11:00 pm
Fri, Apr 28
72 °FPassing clouds.2 mph69%29.98 "HgN/A
10:30 pm72 °FPassing clouds.3 mph69%29.98 "HgN/A
10:00 pm72 °FPassing clouds.3 mph69%29.95 "HgN/A
9:00 pm72 °FPassing clouds.7 mph69%29.95 "HgN/A
8:30 pm72 °FPassing clouds.7 mph69%29.95 "HgN/A
8:00 pm72 °FPassing clouds.10 mph69%29.95 "HgN/A
7:30 pm72 °FPassing clouds.10 mph73%29.95 "HgN/A
7:00 pm72 °FPassing clouds.9 mph73%29.95 "HgN/A
6:30 pm72 °FPassing clouds.7 mph73%29.95 "HgN/A
6:00 pm73 °FPassing clouds.9 mph69%29.92 "HgN/A
5:30 pm75 °FScattered clouds.3 mph65%29.92 "HgN/A
5:00 pm77 °FScattered clouds.8 mph61%29.92 "HgN/A
4:30 pm75 °FPassing clouds.9 mph61%29.92 "HgN/A
3:30 pm77 °FPassing clouds.8 mph54%29.95 "Hg5 mi
3:00 pm77 °FPassing clouds.9 mph54%29.95 "Hg6 mi
2:30 pm77 °FPassing clouds.7 mph57%29.95 "Hg5 mi
2:00 pm77 °FScattered clouds.8 mph54%29.98 "Hg5 mi
1:30 pm77 °FScattered clouds.8 mph54%29.98 "Hg6 mi
1:00 pm77 °FPassing clouds.8 mph54%29.98 "Hg6 mi
12:30 pm75 °FPassing clouds.9 mph57%29.98 "Hg6 mi
12:00 pm77 °FPassing clouds.5 mph54%30.01 "HgN/A
11:30 am75 °FPassing clouds.5 mph54%30.01 "HgN/A
11:00 am75 °FPassing clouds.5 mph54%30.01 "HgN/A
10:30 am73 °FPassing clouds.5 mph57%30.01 "HgN/A
10:00 am72 °FScattered clouds.6 mph61%30.04 "HgN/A
9:30 am72 °FScattered clouds.8 mph61%30.04 "HgN/A
9:00 am72 °FScattered clouds.8 mph61%30.04 "HgN/A
8:30 am72 °FScattered clouds.7 mph61%30.01 "HgN/A
8:00 am70 °FScattered clouds.9 mph60%30.01 "HgN/A
7:30 am70 °FScattered clouds.10 mph60%30.01 "HgN/A
7:00 am70 °FPassing clouds.10 mph60%29.98 "HgN/A
6:30 am68 °FPassing clouds.12 mph64%29.98 "HgN/A
6:00 am70 °FScattered clouds.10 mph60%29.98 "HgN/A
5:30 am70 °FPassing clouds.8 mph60%29.98 "HgN/A
5:00 am70 °FPassing clouds.10 mph64%29.98 "HgN/A
4:30 am70 °FPassing clouds.9 mph64%29.98 "HgN/A
4:00 am70 °FPassing clouds.6 mph64%29.95 "HgN/A
3:00 am70 °FPassing clouds.7 mph64%29.95 "HgN/A
2:30 am70 °FPassing clouds.8 mph64%29.98 "HgN/A
2:00 am70 °FPassing clouds.8 mph64%29.98 "HgN/A
1:30 am70 °FPassing clouds.7 mph64%29.98 "HgN/A
1:00 am70 °FPassing clouds.7 mph69%29.98 "HgN/A
12:30 am70 °FPassing clouds.10 mph69%30.01 "HgN/A
12:00 am70 °FPassing clouds.9 mph64%30.01 "HgN/A
Weather by CustomWeather, © 2017

See weather overviewHow to use our weather pages